EHI
0 0 0 0 0 0 0 0 0 0 0 0 0 0 0 0 0 0 0 1 2 5 6 6 6 5 3 2 1 0 0 0 0 0 0 0 0 0 0 0 0 0 0 0
0 0 0 0 0 0 0 0 0 0 0 0 0 0 0 0 0 0 0 0 2 4 6 6 5 4 2 1 0 0 0 0 0 0 0 0 0 0 0 0 1 1 0 0
0 0 0 0 0 0 0 0 0 0 0 0 0 0 0 0 0 0 0 0 1 4 6 6 4 2 1 0 0 0 0 0 0 0 0 0 0 0 0 1 2 2 1 1
0 0 0 0 0 0 0 0 0 0 0 0 0 0 0 0 0 0 0 0 1 4 7 7 4 2 1 0 0 0 0 0 0 0 0 0 0 0 0 1 3 3 3 2
0 0 0 0 0 0 0 0 0 0 0 0 0 0 0 0 0 0 0 0 1 4 6 6 3 2 2 1 0 0 0 0 0 0 0 0 0 1 1 2 3 3 3 3
0 0 0 0 0 0 0 0 0 0 0 0 0 0 0 0 0 0 0 0 1 2 3 3 2 2 3 2 1 0 0 0 0 0 0 0 1 2 3 3 3 3 3 3
0 0 0 0 0 0 0 0 0 0 0 0 0 0 0 0 0 0 0 0 0 0 1 1 1 1 2 2 1 0 0 0 0 0 0 0 1 2 3 4 3 3 3 2
0 0 0 0 0 0 0 0 0 0 0 0 0 0 0 0 0 0 0 0 0 0 0 0 0 0 1 1 1 1 0 0 0 0 0 0 1 3 4 4 4 3 2 1
0 0 0 0 0 0 0 0 0 0 0 0 0 0 0 0 0 0 0 0 0 0 0 0 0 0 0 0 0 0 0 0 0 0 1 1 3 3 3 4 3 3 1 0
0 0 0 0 0 0 0 0 0 0 0 0 0 0 0 0 0 0 0 0 0 0 0 0 0 0 0 0 0 0 0 0 0 0 1 3 4 4 3 3 3 2 1 0
0 0 0 0 0 0 0 0 0 0 0 0 0 0 0 0 0 0 0 0 0 0 0 0 0 0 0 0 0 0 0 0 0 0 1 3 5 4 3 2 2 2 1 0
0 0 0 0 0 0 0 0 0 0 0 0 0 0 0 0 0 0 0 0 0 0 0 0 0 0 0 0 0 0 0 0 0 0 1 2 3 2 1 1 1 1 0 0
0 0 0 0 0 0 0 0 0 0 0 0 0 0 0 0 0 0 0 0 0 0 0 0 0 0 0 0 0 0 0 0 0 0 0 1 1 0 0 0 0 0 0 0
0 0 0 0 0 0 0 0 0 0 0 0 0 0 0 0 0 0 0 0 0 0 0 0 0 0 0 0 0 0 0 0 0 0 0 0 0 0 0 0 0 1 1 0
0 0 0 0 0 0 0 0 0 0 0 0 0 0 0 0 0 0 0 0 0 0 0 0 0 0 0 0 0 0 0 0 0 0 0 0 0 0 0 0 0 1 1 1
0 0 0 0 0 0 0 0 0 0 0 0 0 0 0 0 0 0 0 0 0 0 0 0 0 0 0 0 0 0 0 0 0 0 0 0 0 0 0 0 0 0 0 0
0 0 0 0 0 0 0 0 0 0 0 0 0 0 0 0 0 0 0 0 0 0 0 0 0 0 0 0 0 0 0 0 0 0 0 0 0 0 0 0 0 0 0 0
0 0 0 0 0 0 0 0 0 0 0 0 0 0 0 0 0 0 0 0 0 0 0 0 0 0 0 0 0 0 0 0 0 0 0 0 0 0 0 0 0 0 0 0
0 0 0 0 0 0 0 0 0 0 0 0 0 0 0 0 0 0 0 0 0 0 0 0 0 0 0 0 0 0 0 0 0 0 0 0 0 0 0 0 0 0 0 0
0 0 0 0 0 0 0 0 0 0 0 0 0 0 0 0 0 0 0 0 0 0 0 0 0 0 0 0 0 0 0 0 0 0 0 0 0 0 0 0 0 0 0 0
0 0 0 0 0 0 0 0 0 0 0 0 0 0 0 0 0 0 0 0 0 0 0 0 0 0 0 0 0 0 0 0 0 0 0 0 0 0 0 0 0 0 0 0
0 0 0 0 0 0 0 0 0 0 0 0 0 0 0 0 0 0 0 0 0 0 0 0 0 0 0 0 0 0 0 0 0 0 0 0 0 0 0 0 0 0 0 0
0 0 0 0 0 0 0 0 0 0 0 0 0 0 0 0 0 0 0 0 0 0 0 0 0 0 0 0 0 0 0 0 0 0 0 0 0 0 0 0 0 0 0 0
0 0 0 0 0 0 0 0 0 0 0 0 0 0 0 0 0 0 0 0 0 0 0 0 0 0 0 0 0 0 0 0 0 0 0 0 0 0 0 0 0 0 0 0
0 0 0 0 0 0 0 0 0 0 0 0 0 0 0 0 0 0 0 0 0 0 0 0 0 0 0 0 0 0 0 0 0 0 0 0 0 0 0 0 0 0 0 0
0 0 0 0 0 0 0 0 0 0 0 0 0 0 0 0 0 0 0 0 0 0 0 0 0 0 0 0 0 0 0 0 0 0 0 0 0 0 0 0 0 0 0 0
0 0 0 0 0 0 0 0 0 0 0 0 0 0 0 0 0 0 0 0 0 0 0 0 0 0 0 0 0 0 0 0 0 0 0 0 0 0 0 0 0 0 0 0
Wind_Speed
6 4 5 6 8 8 10 10 10 8 8 7 5 5 3 2 3 3 2 3 3 3 3 3 4 4 4 4 4 4 4 4 4 3 3 3 3 3 3 3 4 4 5 5
6 5 7 7 8 9 11 11 11 11 10 6 5 5 4 4 3 4 3 3 3 3 3 4 4 4 5 5 5 5 5 4 3 3 3 3 3 3 3 3 4 4 4 5
6 4 7 9 8 9 8 8 8 9 7 4 5 5 5 5 4 5 4 4 4 4 4 4 4 4 5 5 5 5 5 5 4 4 4 3 3 3 3 3 3 4 4 4
6 6 9 1 2 4 7 7 7 7 6 5 5 5 4 4 4 4 4 4 4 4 4 3 4 4 5 5 5 6 6 5 5 4 4 4 4 4 4 4 3 4 4 4
5 7 8 4 2 3 5 6 5 6 5 4 4 5 4 2 3 4 4 3 3 3 3 3 3 4 5 5 6 6 6 6 5 5 5 5 4 4 4 4 4 4 4 4
6 7 7 2 1 3 6 6 1 3 4 4 4 6 2 2 3 4 4 3 3 3 3 3 3 4 5 5 6 7 6 6 6 6 6 6 5 5 4 4 4 4 4 4
10 9 6 2 1 2 6 3 3 4 5 5 5 5 4 4 4 3 3 3 3 3 3 3 3 4 5 5 6 6 5 6 6 6 6 6 5 5 4 4 4 4 4 4
7 9 6 1 2 4 5 5 5 5 4 5 4 4 3 3 3 3 3 3 3 3 3 3 3 4 5 5 5 4 4 5 5 6 5 5 5 5 5 4 4 4 4 4
5 4 2 2 3 5 6 6 6 5 4 3 4 4 4 4 4 4 4 4 3 3 3 3 3 4 5 4 4 4 5 5 5 5 5 5 5 5 5 5 4 4 4 4
7 6 5 5 6 6 6 6 6 5 4 4 4 5 5 5 5 4 4 4 4 3 3 3 3 4 4 4 4 4 5 5 5 5 5 5 5 5 5 5 5 4 4 4
9 8 6 6 6 6 6 5 5 5 5 4 4 5 6 6 5 5 5 4 4 4 4 4 4 4 4 4 4 5 5 5 5 4 4 5 5 4 5 5 5 5 5 4
8 6 7 6 5 5 5 6 5 5 5 5 5 5 5 5 5 5 5 5 4 5 5 5 5 5 5 5 5 6 5 5 4 4 4 4 4 4 4 5 4 5 5 5
8 6 7 7 6 5 5 5 5 5 5 5 5 5 5 5 5 5 6 6 6 6 6 6 5 6 5 5 6 7 6 5 4 4 5 5 5 5 4 4 5 6 6 6
6 5 6 6 6 5 5 5 5 5 5 5 5 5 5 5 5 6 6 6 6 6 6 6 6 7 6 6 6 7 7 6 6 5 5 5 5 5 5 5 4 4 6 8
5 6 6 6 5 5 5 5 5 5 5 6 6 6 6 6 6 6 6 6 6 7 6 6 7 7 6 6 7 7 6 5 5 5 5 6 6 6 6 6 5 5 4 4
5 4 4 5 5 5 5 6 6 6 6 6 6 6 7 7 7 7 7 7 7 7 7 7 7 7 6 6 7 6 6 6 6 5 6 6 6 6 6 6 6 5 5 4
5 5 5 5 6 6 6 6 6 6 6 6 7 7 6 7 7 8 8 7 8 8 7 7 7 6 6 6 6 5 5 5 7 6 6 6 6 6 6 6 6 5 5 5
5 6 6 6 6 7 7 7 6 7 6 7 7 7 7 7 8 8 8 8 8 8 7 7 7 6 6 6 5 4 5 5 5 6 6 6 7 7 6 7 7 7 5 5
5 5 6 6 6 6 6 6 6 6 7 6 7 7 7 8 8 8 8 8 8 8 7 6 6 7 6 6 5 5 5 5 6 6 6 6 7 7 7 7 7 6 6 5
4 5 5 5 6 6 6 6 6 6 6 6 7 7 8 8 7 7 8 8 7 6 6 6 6 6 6 5 5 5 6 6 6 6 6 6 6 6 6 7 7 6 6 6
4 5 5 5 5 6 6 6 6 6 6 6 7 7 8 8 7 7 7 7 6 5 5 6 5 4 5 4 6 5 5 6 6 6 5 5 6 6 6 6 6 6 6 6
5 5 5 5 6 6 5 5 6 6 7 6 7 7 7 7 7 7 7 6 5 4 4 4 4 4 4 5 4 5 5 5 5 5 5 5 5 5 5 6 6 6 6 6
5 5 6 6 6 6 6 5 5 6 6 6 6 7 7 6 5 5 5 4 4 4 4 3 4 5 5 4 3 4 4 5 4 4 4 4 4 5 5 5 5 5 5 5
5 5 5 5 5 5 6 6 6 5 6 6 6 6 6 5 5 4 4 4 5 5 4 3 4 5 5 3 3 3 4 4 4 4 4 4 4 4 4 4 4 4 4 5
5 5 5 5 5 4 5 5 5 5 5 4 5 5 5 4 4 4 3 3 4 4 3 3 5 5 4 3 3 3 3 3 3 3 3 4 4 3 4 4 4 4 4 4
5 5 5 5 5 4 4 4 4 4 4 4 4 4 4 3 3 3 3 3 4 4 3 3 3 3 2 2 2 3 3 3 3 3 3 4 4 4 3 3 4 4 4 4
5 4 4 4 4 3 3 4 4 4 4 4 5 4 4 3 3 3 3 3 3 3 3 2 2 2 2 2 2 2 2 3 3 3 3 3 3 3 3 4 3 3 3 3
Wind_Direction
270 279 266 265 256 239 241 254 264 269 266 276 286 285 276 252 222 211 208 205 195 191 187 185 193 197 195 195 195 195 198 206 211 215 211 222 229 231 232 232 235 237 231 222
252 245 251 260 260 249 248 253 256 262 268 279 280 279 276 256 240 235 233 230 220 207 198 197 199 202 202 203 202 203 206 209 211 220 212 218 229 234 231 230 231 225 232 231
259 252 256 253 254 245 242 244 252 260 268 271 266 266 273 274 258 256 254 247 233 225 218 213 212 211 211 209 205 207 210 209 209 214 211 218 226 224 221 221 224 225 226 228
269 255 250 293 14 267 251 252 256 266 279 281 284 287 285 282 280 274 265 253 244 240 234 228 220 218 217 209 207 210 214 214 211 216 212 214 223 223 223 221 212 220 226 224
250 254 260 253 251 262 259 261 263 267 275 285 291 272 251 275 312 306 294 283 267 257 247 237 225 219 217 212 211 215 219 223 218 217 216 216 218 223 225 223 219 223 221 217
242 254 258 300 28 315 265 254 258 273 276 283 272 268 282 351 317 308 300 290 282 262 246 239 231 219 219 218 217 222 224 226 221 218 218 219 221 222 224 224 224 229 229 225
243 250 260 332 326 244 245 321 1 300 284 273 272 303 328 316 309 306 303 301 282 260 249 246 238 225 225 228 231 233 233 230 225 220 220 223 223 219 219 221 223 228 231 231
236 241 249 75 208 244 312 338 320 311 302 289 296 310 315 313 310 310 309 306 281 261 257 255 240 230 233 241 244 236 230 228 228 226 224 219 215 215 219 218 220 228 233 234
247 268 344 283 276 305 310 302 307 310 309 295 285 289 297 300 299 303 307 309 293 272 270 268 254 241 243 245 239 231 224 223 225 226 222 218 215 211 212 215 221 225 225 229
255 257 273 273 279 286 290 293 298 299 297 284 284 291 292 291 291 294 299 299 291 273 265 264 261 251 251 250 238 229 229 230 227 223 221 218 216 215 214 213 218 222 226 228
253 263 270 264 271 282 288 290 294 302 297 290 290 295 298 294 294 295 294 290 280 267 267 266 260 252 249 248 246 241 237 233 229 223 223 226 223 223 226 226 225 226 228 229
261 272 273 279 283 282 281 285 291 293 296 297 292 293 295 294 296 295 292 283 275 270 271 271 265 258 254 247 243 240 238 235 232 224 221 224 224 225 222 234 229 235 250 249
274 288 286 288 286 281 284 290 291 287 285 290 295 293 292 291 291 292 291 284 279 275 272 269 266 263 257 248 241 239 240 238 234 232 228 226 225 227 229 221 219 223 225 231
263 265 264 268 273 273 278 284 288 286 286 287 289 288 287 287 287 287 288 288 282 278 272 268 263 263 263 254 246 244 243 237 235 234 233 231 230 232 233 231 228 229 219 216
256 263 272 283 282 281 278 275 278 282 286 286 285 283 283 285 286 286 288 289 279 273 271 270 267 266 265 257 251 246 243 239 234 235 234 235 232 233 236 235 236 238 237 214
267 268 270 272 279 287 288 285 283 286 289 288 287 287 289 289 290 289 288 286 277 271 271 269 269 271 264 256 253 248 244 236 237 238 236 235 235 233 233 234 237 236 234 232
250 264 276 279 282 286 285 285 284 283 283 286 292 295 293 290 289 288 288 286 283 277 271 268 270 270 259 252 250 246 244 233 226 233 237 238 238 237 236 237 238 239 238 230
261 267 270 272 276 281 282 282 284 286 285 290 293 290 287 284 284 287 291 290 285 277 271 270 273 267 254 250 250 247 246 246 240 239 237 237 239 239 238 238 239 240 239 227
270 278 282 283 282 281 282 284 287 289 290 289 288 286 285 284 286 288 288 286 282 277 274 275 277 263 255 252 255 248 246 247 245 243 242 238 234 236 238 238 238 236 234 231
285 287 287 288 288 286 285 288 289 287 288 288 286 286 285 287 289 290 289 283 277 279 282 281 266 256 253 249 250 246 244 244 244 242 241 242 240 239 238 239 239 237 234 231
288 292 294 294 292 287 286 287 285 284 287 285 284 286 287 289 290 288 286 283 283 285 284 279 261 252 249 254 249 248 247 246 245 243 243 243 244 244 241 237 237 239 238 237
287 288 291 292 291 291 292 291 286 285 285 285 286 287 287 288 288 285 278 280 288 298 285 272 264 268 270 267 249 249 251 252 250 248 246 247 249 248 245 243 241 242 244 243
286 287 288 287 289 292 294 294 291 288 285 285 287 287 285 286 284 280 281 287 290 302 291 283 299 297 286 266 250 249 251 252 251 250 250 249 247 247 248 248 246 244 244 244
287 288 289 290 288 284 286 295 298 294 290 289 287 288 288 286 283 277 278 291 299 296 286 301 308 299 284 266 258 254 253 250 248 247 249 251 249 248 247 248 247 247 245 247
284 283 282 283 280 281 287 297 301 299 296 292 296 299 292 280 280 285 287 288 301 295 287 299 302 294 278 262 256 252 250 252 255 255 250 252 254 253 250 251 250 251 252 252
281 279 278 278 282 285 287 288 291 295 297 298 301 302 299 295 292 294 292 291 294 298 294 293 292 285 271 269 263 260 257 255 253 251 253 256 258 257 256 257 260 258 257 256
282 282 282 282 282 283 285 285 287 291 293 295 301 304 302 303 306 310 306 298 294 291 294 297 297 298 297 287 276 278 274 265 256 255 258 260 262 260 260 262 262 261 261 262